Truth Or Consequences, NM

4:43 AM MDT on October 16, 2019 (GMT -0600)
Truth Or Consequences Municipal

Weather History for KTCS - August, 2019

Change the Weather History Date:

Wednesday, August 21, 2019

  Actual Average Record
Temperature  
Mean Temperature 82 °F -  
Max Temperature 95 °F 89 °F 99 °F (2007)
Min Temperature 68 °F 64 °F 60 °F (2005)
Cooling Degree Days 16    
Month to date cooling degree days 383  
Year to date cooling degree days 1603  
Since 1 June cooling degree days 1405  
Growing Degree Days 32 (Base 50)    
Moisture  
Dew Point 53 °F    
Average Humidity 43    
Maximum Humidity 73    
Minimum Humidity 19    
Precipitation  
Precipitation 0.02 in - 1.57 in (2006)
Month to date precipitation 1.19  
Year to date precipitation 3.37  
Sea Level Pressure  
Sea Level Pressure 29.88 in    
Wind  
Wind Speed 8 mph ()    
Max Wind Speed 32 mph    
Max Gust Speed 44 mph    
Visibility 9.9 miles    
Events Rain , Thunderstorm    
T = Trace of Precipitation, MM = Missing Value Source: Averaged Metar Reports

Daily Weather History Graph

Daily Weather History Graph

Search for Another Location

Airport or City:

Astronomy

Aug. 21, 2019 Rise Set
Actual Time 6:35 AM MDT 7:48 PM MDT
Civil Twilight 6:10 AM MDT 8:13 PM MDT
Nautical Twilight 5:39 AM MDT 8:44 PM MDT
Astronomical Twilight 5:07 AM MDT 9:16 PM MDT
Moon 11:25 PM MDT (8/21) 11:57 AM MDT (8/21)
Length of Visible Light 14h 03m
Length of Day
13h 12m
Waning Gibbous, 68% of the Moon is Illuminated
Aug 21
Waning Gibbous
Aug 23
Last Quarter
Aug 30
New
Sep 5
First Quarter
Sep 13
Full

Hourly Weather History & Observations

Time (MDT) Temp. Heat Index Dew Point Humidity Pressure Visibility Wind Dir Wind Speed Gust Speed Precip Events Conditions
12:53 AM 81.0 °F - 48.9 °F 33% 29.85 in 10.0 mi WNW 8.1 mph - N/A   Partly Cloudy
1:53 AM 78.1 °F - 48.9 °F 36% 29.85 in 10.0 mi ESE 4.6 mph - N/A   Clear
2:53 AM 75.9 °F - 48.9 °F 38% 29.84 in 10.0 mi SSW 3.5 mph - N/A   Clear
3:53 AM 75.0 °F - 50.0 °F 41% 29.83 in 10.0 mi West 4.6 mph - N/A   Clear
4:53 AM 75.0 °F - 50.0 °F 41% 29.83 in 10.0 mi Calm Calm - N/A   Clear
5:53 AM 73.9 °F - 51.1 °F 45% 29.86 in 10.0 mi Calm Calm - N/A   Clear
6:53 AM 73.0 °F - 50.0 °F 44% 29.87 in 10.0 mi NW 3.5 mph - N/A   Clear
7:53 AM 75.9 °F - 51.1 °F 42% 29.89 in 10.0 mi NNW 3.5 mph - N/A   Clear
8:53 AM 82.0 °F - 51.1 °F 34% 29.89 in 10.0 mi Calm Calm - N/A   Clear
9:53 AM 84.0 °F - 50.0 °F 31% 29.89 in 10.0 mi Calm Calm - N/A   Clear
10:53 AM 88.0 °F - 50.0 °F 27% 29.88 in 10.0 mi South 6.9 mph - N/A   Clear
11:53 AM 89.1 °F - 48.9 °F 25% 29.86 in 10.0 mi South 10.4 mph - N/A   Clear
12:53 PM 91.9 °F - 48.0 °F 22% 29.81 in 10.0 mi South 10.4 mph - N/A   Clear
1:53 PM 93.9 °F - 46.0 °F 19% 29.77 in 10.0 mi Calm Calm - N/A   Clear
2:53 PM 93.9 °F - 46.9 °F 20% 29.76 in 10.0 mi SSW 9.2 mph - N/A   Clear
3:50 PM 87.8 °F - 48.2 °F 25% 30.07 in 10.0 mi NW 29.9 mph 39.1 mph N/A Thunderstorm Thunderstorm
3:53 PM 86.0 °F - 51.1 °F 30% 29.80 in 10.0 mi NW 29.9 mph 40.3 mph N/A Thunderstorm Thunderstorm
3:59 PM 82.9 °F 81.8 °F 53.1 °F 36% 30.09 in 10.0 mi NW 28.8 mph 43.7 mph N/A Thunderstorm Mostly Cloudy
4:06 PM 75.9 °F - 59.0 °F 56% 30.10 in 7.0 mi NW 28.8 mph 42.6 mph 0.00 in Rain , Thunderstorm Light Thunderstorms and Rain
4:34 PM 70.0 °F - 61.0 °F 73% 30.10 in 10.0 mi WNW 29.9 mph 39.1 mph 0.02 in Rain Light Rain
4:53 PM 72.0 °F - 60.1 °F 66% 29.84 in 10.0 mi NW 23.0 mph 36.8 mph 0.02 in   Mostly Cloudy
5:53 PM 78.1 °F - 60.1 °F 54% 29.90 in 10.0 mi SE 10.4 mph 21.9 mph N/A   Mostly Cloudy
6:53 PM 75.0 °F - 57.9 °F 55% 29.88 in 10.0 mi ESE 15.0 mph - N/A   Clear
7:53 PM 75.0 °F - 55.0 °F 50% 29.84 in 10.0 mi East 6.9 mph - N/A   Clear
8:53 PM 73.0 °F - 55.9 °F 55% 29.84 in 10.0 mi West 4.6 mph - N/A   Clear
9:53 PM 73.0 °F - 57.0 °F 57% 29.85 in 10.0 mi NW 5.8 mph - N/A   Clear
10:53 PM 70.0 °F - 59.0 °F 68% 29.86 in 10.0 mi Calm Calm - N/A   Clear
11:53 PM 69.1 °F - 59.0 °F 70% 29.87 in 10.0 mi NW 4.6 mph - N/A   Clear